Location: Ferchesar
(52.6477°N, 12.4298°E)
Time: 15:37:23
(UTC+01:00)

Explorer 7 - Pass Details

Date: 10 December 2021
Orbit: 483 x 674 km, 50.3° (Epoch: 22 January)

Event Time Altitude Azimuth Distance (km) Brightness Sun altitude
Rises 09:59:42 0° 276° (W) 2,690 10.0 9.8°
Reaches altitude 10° 10:03:33 10° 239° (WSW) 1,745 9.5 10.0°
Maximum altitude 10:04:36 11° 224° (SW) 1,675 9.6 10.1°
Drops below altitude 10° 10:05:39 10° 208° (SSW) 1,719 9.9 10.2°
Sets 10:09:20 0° 171° (S) 2,563 11.9 10.4°
